TITAN 3C TRANSTAGE DEB, 1959

Orbit data source: Space-Track

TITAN 3C TRANSTAGE DEB, 1959 is space debris in LEO originally from a launch on Fri, 15 Oct 1965 UTC launched from the Air Force Eastern Test Range (AFETR). Debris objects in space refer to the collection of defunct objects orbiting the Earth. Examples of debris include non-operational satellites, rocket bodies, and fragments generated from explosions, collisions, or faulty payload assembly.

Loading next visibility...
Identifier
1959, 1965-082GU
Orbit
LEO
Country
Flag of USUS
Related business
Manufacturer
Unknown
Mission
Spacecraft
Bus & Motor
Unknown
Mass
Unknown
Launch date (UTC)
1965-10-15 (60 years ago)
Launch vehicle
Unknown
Launch site
Air Force Eastern Test Range (AFETR)
Object type
Payload
Rocket body
Debris
Shape & HBR
Unknown shape, 0.2 m
Radar Cross Section
Small (<0.1 m²)

Expand to show TLE details & history
Last TLE update: 1 day ago

TLE from 1 day ago
0 TITAN 3C TRANSTAGE DEB
1 01959U 65082GU  25310.14132741  .00001084  00000-0  21308-3 0  9999
2 01959  31.7900 247.9224 0062294  15.6337 344.6209 14.58734686181161
Epoch: 2025-11-06T03:23Z
TLE epoch observation values (Epoch: 2025-11-06T03:23:30.688Z)
Latitude
-0.00002°
Longitude
151.4406°
Altitude
653.415 km
Speed
7.556 km/s
True Right ascension
16h 31m 41s
True Declination
0° 00' 00"
Sunlit
Object was in daylight at epoch
Visualization orbit readout
Latitude
Unknown
Longitude
Unknown
Altitude
Unknown
Speed
Unknown
Apparent Right ascension
Unknown
Apparent Declination
Unknown
Sunlit
N/A
Visualization observer readout
Local Sidereal Time
02:35:37
Azimuth
Unknown
Elevation
Unknown
Doppler factor
Unknown
Orbital elements
Apogee altitude
745 km
Perigee altitude
656.804 km
Semi-major axis
7,079.039 km
Eccentricity
0.00623
Inclination
31.79°
RAAN
247.9224°
Arg. of periapsis
15.6337°
True anomaly
344.43016°
Mean anomaly
344.6209°
Eccentric anomaly
344.52567°
Mean motion
3.64403 °/min
Orbital period
98.79 mins
BSTAR
0.00021308

Documentation

Showing up to 5 results
|